DW5640 Weather Reports


time (UTC)temp
C
wind
direction
speed
KPH
gust
KPH
rain 1hr
cm
rain 24hr
cm
rain mn
cm
humidity
%
barometer
mb
20260906142921 -17 5 11.3 16.1 0.00 0.00 0.00 1019.3
20260906142448 -17 5 8.0 14.5 0.00 0.00 0.00 1019.3
20260906141931 -17 5 9.7 14.5 0.00 0.00 0.00 1019.3
20260906141457 -17 5 9.7 14.5 0.00 0.00 0.00 1019.2
20260906140942 -17 5 8.0 12.9 0.00 0.00 0.00 1019.3
20260906140428 -17 5 8.0 14.5 0.00 0.00 0.00 1019.3
20260906135935 -17 5 8.0 14.5 0.00 0.00 0.00 1019.3
20260906135440 -17 360 6.4 11.3 0.00 0.00 0.00 1019.4
20260906134928 -17 5 9.7 16.1 0.00 0.00 0.00 1019.5
20260906134431 -17 5 9.7 16.1 0.00 0.00 0.00 1019.4
20260906133935 -17 5 9.7 14.5 0.00 0.00 0.00 1019.4
20260906133442 -17 5 8.0 14.5 0.00 0.00 0.00 1019.4
20260906132925 -17 5 9.7 14.5 0.00 0.00 0.00 1019.5
20260906132427 -17 5 9.7 14.5 0.00 0.00 0.00 1019.5
20260906131446 -17 5 6.4 14.5 0.00 0.00 0.00 1019.5
20260906130928 -17 5 8.0 14.5 0.00 0.00 0.00 1019.4
20260906130437 -17 5 4.8 12.9 0.00 0.00 0.00 1019.3
20260906125938 -17 360 6.4 12.9 0.00 0.00 0.00 1019.4
20260906125441 -17 5 6.4 12.9 0.00 0.00 0.00 1019.5
20260906125004 -17 5 6.4 12.9 0.00 0.00 0.00 1019.4
20260906124426 -17 5 6.4 9.7 0.00 0.00 0.00 1019.2
20260906123929 -17 5 6.4 9.7 0.00 0.00 0.00 1019.2
20260906123434 -17 5 8.0 11.3 0.00 0.00 0.00 1019.1
20260906122940 -17 5 8.0 11.3 0.00 0.00 0.00 1019.0
20260906122448 -17 5 6.4 11.3 0.00 0.00 0.00 1018.9
20260906121935 -17 5 6.4 14.5 0.00 0.00 0.00 1018.9
20260906121439 -17 5 9.7 12.9 0.00 0.00 0.00 1018.7
20260906121004 -17 5 6.4 12.9 0.00 0.00 0.00 1018.6
20260906120426 -17 5 8.0 12.9 0.00 0.00 0.00 1018.6
20260906115930 -17 5 6.4 9.7 0.00 0.00 0.00 1018.7
20260906115434 -17 5 4.8 9.7 0.00 0.00 0.00 1018.6
20260906114943 -17 5 6.4 9.7 0.00 0.00 0.00 1018.5
20260906114427 -17 5 4.8 9.7 0.00 0.00 0.00 1018.5
20260906113931 -17 5 6.4 9.7 0.00 0.00 0.00 1018.4
20260906113435 -17 5 4.8 9.7 0.00 0.00 0.00 1018.3
20260906112943 -17 5 6.4 9.7 0.00 0.00 0.00 1018.4
20260906112426 -17 5 6.4 9.7 0.00 0.00 0.00 1018.2
20260906111931 -17 5 4.8 8.0 0.00 0.00 0.00 1018.2
20260906111434 -17 5 4.8 11.3 0.00 0.00 0.00 1018.1
20260906110939 -17 5 4.8 11.3 0.00 0.00 0.00 1018.0
20260906110444 -17 5 6.4 9.7 0.00 0.00 0.00 1018.0
20260906105929 -17 5 6.4 8.0 0.00 0.00 0.00 1017.9
20260906105437 -17 5 6.4 9.7 0.00 0.00 0.00 1017.8
20260906104922 -17 5 6.4 9.7 0.00 0.00 0.00 1017.5
20260906104449 -17 360 6.4 9.7 0.00 0.00 0.00 1017.5
20260906103932 -17 5 6.4 9.7 0.00 0.00 0.00 1017.5
20260906103435 -17 5 4.8 8.0 0.00 0.00 0.00 1017.6
20260906103000 -17 5 6.4 8.0 0.00 0.00 0.00 1017.6
20260906102446 -17 5 4.8 8.0 0.00 0.00 0.00 1017.6
20260906101928 -17 5 4.8 8.0 0.00 0.00 0.00 1017.6
20260906101434 -17 5 4.8 8.0 0.00 0.00 0.00 1017.6
20260906100938 -17 5 6.4 8.0 0.00 0.00 0.00 1017.7
20260906100442 -17 5 3.2 8.0 0.00 0.00 0.00 1017.7
20260906095924 -17 5 4.8 9.7 0.00 0.00 0.00 1017.5
20260906095429 -17 5 6.4 9.7 0.00 0.00 0.00 1017.5
20260906094933 -17 5 4.8 8.0 0.00 0.00 0.00 1017.4
20260906094456 -17 5 4.8 8.0 0.00 0.00 0.00 1017.5
20260906093940 -17 5 6.4 8.0 0.00 0.00 0.00 1017.5
20260906093444 -17 5 4.8 8.0 0.00 0.00 0.00 1017.5
20260906092927 -17 5 4.8 8.0 0.00 0.00 0.00 1017.4
20260906092451 -17 5 4.8 8.0 0.00 0.00 0.00 1017.4
20260906091934 -17 5 4.8 8.0 0.00 0.00 0.00 1017.2
20260906091439 -17 5 6.4 9.7 0.00 0.00 0.00 1017.2
20260906090944 -17 5 6.4 9.7 0.00 0.00 0.00 1017.3
20260906090448 -17 5 4.8 9.7 0.00 0.00 0.00 1017.3
20260906085933 -17 5 4.8 9.7 0.00 0.00 0.00 1017.3
20260906085439 -17 5 4.8 8.0 0.00 0.00 0.00 1017.5
20260906084924 -17 5 4.8 8.0 0.00 0.00 0.00 1017.5
20260906084430 -17 5 4.8 8.0 0.00 0.00 0.00 1017.5
20260906083934 -17 5 4.8 6.4 0.00 0.00 0.00 1017.4
20260906083439 -17 5 4.8 6.4 0.00 0.00 0.00 1017.4
20260906082925 -17 5 4.8 8.0 0.00 0.00 0.00 1017.4
20260906082431 -17 5 6.4 8.0 0.00 0.00 0.00 1017.4
20260906081935 -17 5 4.8 8.0 0.00 0.00 0.00 1017.5
20260906081439 -17 5 6.4 8.0 0.00 0.00 0.00 1017.5
20260906080921 -17 5 6.4 8.0 0.00 0.00 0.00 1017.5
20260906080430 -17 5 4.8 8.0 0.00 0.00 0.00 1017.4
20260906075938 -17 5 4.8 8.0 0.00 0.00 0.00 1017.3
20260906075505 -17 5 6.4 8.0 0.00 0.00 0.00 1017.3
20260906074949 -17 5 6.4 9.7 0.00 0.00 0.00 1017.4
20260906074434 -17 5 6.4 9.7 0.00 0.00 0.00 1017.4
20260906073435 -17 5 4.8 9.7 0.00 0.00 0.00 1017.4
20260906073001 -17 5 4.8 8.0 0.00 0.00 0.00 1017.4
20260906072443 -17 5 6.4 8.0 0.00 0.00 0.00 1017.5
20260906071926 -17 5 4.8 8.0 0.00 0.00 0.00 1017.6
20260906071431 -17 5 4.8 8.0 0.00 0.00 0.00 1017.7
20260906070934 -17 5 3.2 6.4 0.00 0.00 0.00 1017.7
20260906070440 -17 5 4.8 8.0 0.00 0.00 0.00 1017.9
20260906065926 -17 5 4.8 9.7 0.00 0.00 0.00 1017.9
20260906065429 -17 5 6.4 9.7 0.00 0.00 0.00 1017.9
20260906064431 -17 5 4.8 8.0 0.00 0.00 0.00 1018.1
20260906064000 -17 5 4.8 8.0 0.00 0.00 0.00 1018.1
20260906063443 -17 5 3.2 8.0 0.00 0.00 0.00 1018.1
20260906062927 -17 5 4.8 8.0 0.00 0.00 0.00 1018.0
20260906062451 -17 5 4.8 8.0 0.00 0.00 0.00 1018.0
20260906061934 -17 5 4.8 8.0 0.00 0.00 0.00 1017.9
20260906061501 -17 5 4.8 8.0 0.00 0.00 0.00 1017.9
20260906060923 -17 5 3.2 9.7 0.00 0.00 0.00 1017.8
20260906060431 -17 5 6.4 11.3 0.00 0.00 0.00 1017.8
20260906055934 -17 5 6.4 11.3 0.00 0.00 0.00 1017.8
20260906055420 -17 5 4.8 11.3 0.00 0.00 0.00 1017.9
20260906054924 -17 5 4.8 9.7 0.00 0.00 0.00 1017.8
20260906054428 -17 5 6.4 9.7 0.00 0.00 0.00 1017.8
20260906053951 -17 5 4.8 9.7 0.00 0.00 0.00 1017.7
20260906053417 -17 5 6.4 8.0 0.00 0.00 0.00 1017.6
20260906052924 -17 5 6.4 8.0 0.00 0.00 0.00 1017.6
20260906052429 -17 5 4.8 8.0 0.00 0.00 0.00 1017.5
20260906051934 -17 5 4.8 8.0 0.00 0.00 0.00 1017.4
20260906051422 -17 5 4.8 9.7 0.00 0.00 0.00 1017.5
20260906050929 -17 5 4.8 11.3 0.00 0.00 0.00 1017.5
20260906050437 -17 5 6.4 11.3 0.00 0.00 0.00 1017.4
20260906045941 -17 5 4.8 9.7 0.00 0.00 0.00 1017.3
20260906045423 -17 5 6.4 9.7 0.00 0.00 0.00 1017.3
20260906044421 -17 5 4.8 11.3 0.00 0.00 0.00 1017.4
20260906043924 -17 5 4.8 11.3 0.00 0.00 0.00 1017.3
20260906043427 -17 5 3.2 9.7 0.00 0.00 0.00 1017.3
20260906042932 -17 5 4.8 11.3 0.00 0.00 0.00 1017.2
20260906042436 -17 5 6.4 12.9 0.00 0.00 0.00 1017.0
20260906041918 -17 5 8.0 12.9 0.00 0.00 0.00 1017.0
20260906041425 -17 5 6.4 12.9 0.00 0.00 0.00 1016.9
20260906040933 -17 5 8.0 12.9 0.00 0.00 0.00 1016.8
20260906040419 -17 5 6.4 14.5 0.00 0.00 0.00 1016.9
20260906035926 -17 5 9.7 14.5 0.00 0.00 0.00 1016.7
20260906035452 -17 5 9.7 12.9 0.00 0.00 0.00 1016.5
20260906034958 -17 360 6.4 14.5 0.00 0.00 0.00 1016.5
20260906034419 -17 5 8.0 17.7 0.00 0.00 0.00 1016.4
20260906033923 -17 5 9.7 17.7 0.00 0.00 0.00 1016.3
20260906033449 -17 5 11.3 20.9 0.00 0.00 0.00 1016.4
20260906032956 -17 5 9.7 20.9 0.00 0.00 0.00 1016.4
20260906032421 -17 5 9.7 17.7 0.00 0.00 0.00 1016.3
20260906031927 -17 360 9.7 19.3 0.00 0.00 0.00 1016.2
20260906031432 -17 360 12.9 20.9 0.00 0.00 0.00 1016.1
20260906030920 -17 5 11.3 20.9 0.00 0.00 0.00 1016.1
20260906030426 -17 5 14.5 19.3 0.00 0.00 0.00 1015.9
20260906025931 -17 360 11.3 17.7 0.00 0.00 0.00 1015.9
20260906025439 -17 5 9.7 17.7 0.00 0.00 0.00 1015.9
20260906024922 -17 5 9.7 17.7 0.00 0.00 0.00 1015.9
20260906024450 -17 5 9.7 19.3 0.00 0.00 0.00 1015.9
20260906023936 -17 5 11.3 20.9 0.00 0.00 0.00 1015.8
20260906023423 -17 5 12.9 24.1 0.00 0.00 0.00 1015.8
20260906022932 -17 5 16.1 24.1 0.00 0.00 0.00 1015.6
20260906022436 -17 360 14.5 25.7 0.00 0.00 0.00 1015.6
20260906021939 -17 5 16.1 25.7 0.00 0.00 0.00 1015.5
20260906021424 -17 5 12.9 22.5 0.00 0.00 0.00 1015.6
20260906020932 -17 5 16.1 22.5 0.00 0.00 0.00 1015.4
20260906020435 -17 5 11.3 22.5 0.00 0.00 0.00 1015.4
20260906015921 -17 5 9.7 19.3 0.00 0.00 0.00 1015.3
20260906015427 -17 360 9.7 19.3 0.00 0.00 0.00 1015.3
20260906014930 -17 5 11.3 19.3 0.00 0.00 0.00 1015.3
20260906014439 -17 5 12.9 19.3 0.00 0.00 0.00 1015.2
20260906013944 -17 5 8.0 12.9 0.00 0.00 0.00 1015.3
20260906013427 -17 5 6.4 9.7 0.00 0.00 0.00 1015.2
20260906012931 -17 5 4.8 8.0 0.00 0.00 0.00 1015.3
20260906012435 -17 5 4.8 9.7 0.00 0.00 0.00 1015.2
20260906011919 -17 5 6.4 9.7 0.00 0.00 0.00 1015.1
20260906011425 -17 5 4.8 8.0 0.00 0.00 0.00 1015.1
20260906010429 -17 5 4.8 8.0 0.00 0.00 0.00 1015.0
20260906005933 -17 5 4.8 6.4 0.00 0.00 0.00 1015.0
20260906005437 -17 5 4.8 6.4 0.00 0.00 0.00 1015.0
20260906004939 -17 5 4.8 8.0 0.00 0.00 0.00 1015.0
20260906004420 -17 5 4.8 9.7 0.00 0.00 0.00 1015.0
20260906003927 -17 5 4.8 11.3 0.00 0.00 0.00 1015.1
20260906003430 -17 5 6.4 11.3 0.00 0.00 0.00 1015.0
20260906002935 -17 5 3.2 8.0 0.00 0.00 0.00 1015.0
20260906002422 -17 5 3.2 9.7 0.00 0.00 0.00 1015.0
20260906001926 -17 5 3.2 9.7 0.00 0.00 0.00 1014.9
20260906001430 -17 5 4.8 8.0 0.00 0.00 0.00 1014.9
20260906000934 -17 5 3.2 8.0 0.00 0.00 0.00 1015.0
20260906000436 -17 5 3.2 6.4 0.00 0.00 0.00 1015.0
20260905235436 25 5 3.2 6.4 0.00 0.00 0.00 82 1015.0
20260905234922 25 5 4.8 6.4 0.00 0.00 0.00 81 1015.2
20260905234426 25 5 3.2 8.0 0.00 0.00 0.00 81 1015.2
20260905233932 25 5 3.2 9.7 0.00 0.00 0.00 80 1015.2
20260905233435 25 5 4.8 9.7 0.00 0.00 0.00 80 1015.3
20260905232920 25 5 4.8 9.7 0.00 0.00 0.00 80 1015.4
20260905232447 25 5 4.8 9.7 0.00 0.00 0.00 80 1015.3
20260905231934 25 5 8.0 14.5 0.00 0.00 0.00 80 1015.2
20260905231423 25 5 11.3 14.5 0.00 0.00 0.00 80 1015.1
20260905230926 25 5 8.0 12.9 0.00 0.00 0.00 80 1015.1
20260905230449 25 5 8.0 12.9 0.00 0.00 0.00 81 1015.1
20260905225935 25 5 8.0 14.5 0.00 0.00 0.00 81 1015.2
20260905225423 25 5 6.4 17.7 0.00 0.00 0.00 82 1015.1
20260905224927 25 5 8.0 17.7 0.00 0.00 0.00 82 1015.2
20260905224434 26 5 9.7 16.1 0.00 0.00 0.00 82 1015.2
20260905223920 26 5 9.7 17.7 0.00 0.00 0.00 81 1015.2
20260905223425 26 5 6.4 17.7 0.00 0.00 0.00 80 1015.2
20260905222949 26 5 4.8 14.5 0.00 0.00 0.00 80 1015.1
20260905222433 26 5 6.4 16.1 0.00 0.00 0.00 80 1014.9
20260905221935 26 5 6.4 22.5 0.00 0.00 0.00 81 1014.8
20260905221420 26 5 12.9 20.9 0.00 0.00 0.00 80 1014.7
20260905220927 26 5 9.7 17.7 0.00 0.00 0.00 81 1014.7
20260905220434 26 5 8.0 25.7 0.00 0.00 0.00 80 1014.8
20260905215919 27 5 12.9 25.7 0.00 0.00 0.00 79 1014.8
20260905215445 27 5 12.9 19.3 0.00 0.00 0.00 79 1014.9
20260905214928 27 5 11.3 19.3 0.00 0.00 0.00 80 1014.7
20260905214432 27 5 9.7 17.7 0.00 0.00 0.00 79 1014.7
20260905213935 27 5 8.0 19.3 0.00 0.00 0.00 81 1014.7
20260905213421 27 5 11.3 19.3 0.00 0.00 0.00 79 1014.7
20260905212927 27 5 11.3 22.5 0.00 0.00 0.00 80 1014.7
20260905212432 27 5 14.5 22.5 0.00 0.00 0.00 79 1014.6
20260905211922 27 5 11.3 20.9 0.00 0.00 0.00 79 1014.5
20260905211425 27 5 9.7 19.3 0.00 0.00 0.00 80 1014.4
20260905210932 27 5 9.7 20.9 0.00 0.00 0.00 80 1014.4
20260905210436 27 5 11.3 22.5 0.00 0.00 0.00 80 1014.5
20260905205919 27 5 9.7 22.5 0.00 0.00 0.00 80 1014.5
20260905205425 27 5 11.3 19.3 0.00 0.00 0.00 80 1014.5
20260905204933 27 5 12.9 19.3 0.00 0.00 0.00 79 1014.6
20260905204438 28 5 11.3 19.3 0.00 0.00 0.00 79 1014.6
20260905203922 27 5 9.7 20.9 0.00 0.00 0.00 80 1014.6
20260905203446 27 5 9.7 20.9 0.00 0.00 0.00 79 1014.6
20260905202927 28 5 12.9 22.5 0.00 0.00 0.00 78 1014.5
20260905202430 28 5 16.1 24.1 0.00 0.00 0.00 78 1014.5
20260905201933 28 5 14.5 24.1 0.00 0.00 0.00 77 1014.5
20260905201420 28 5 12.9 17.7 0.00 0.00 0.00 79 1014.4
20260905200924 28 5 8.0 16.1 0.00 0.00 0.00 79 1014.5
20260905200430 28 5 8.0 19.3 0.00 0.00 0.00 78 1014.6
20260905195934 28 5 12.9 19.3 0.00 0.00 0.00 77 1014.5
20260905195417 29 5 12.9 17.7 0.00 0.00 0.00 77 1014.4
20260905194944 29 5 8.0 16.1 0.00 0.00 0.00 77 1014.5
20260905194429 30 5 6.4 16.1 0.00 0.00 0.00 76 1014.5
20260905193933 30 5 8.0 12.9 0.00 0.00 0.00 76 1014.5
20260905193420 29 5 8.0 14.5 0.00 0.00 0.00 77 1014.6
20260905192924 29 5 6.4 14.5 0.00 0.00 0.00 78 1014.7
20260905192430 28 5 9.7 19.3 0.00 0.00 0.00 77 1014.6
20260905191935 29 5 12.9 19.3 0.00 0.00 0.00 75 1014.6
20260905191500 30 5 11.3 14.5 0.00 0.00 0.00 76 1014.6
20260905190922 29 5 9.7 14.5 0.00 0.00 0.00 76 1014.6
20260905190426 29 5 4.8 11.3 0.00 0.00 0.00 78 1014.7
20260905185955 28 5 4.8 11.3 0.00 0.00 0.00 78 1014.7
20260905185416 28 5 8.0 14.5 0.00 0.00 0.00 80 1014.7
20260905184925 28 5 9.7 14.5 0.00 0.00 0.00 77 1014.8
20260905184427 29 5 8.0 11.3 0.00 0.00 0.00 78 1014.8
20260905183934 29 5 6.4 17.7 0.00 0.00 0.00 77 1014.8
20260905183420 29 5 8.0 17.7 0.00 0.00 0.00 78 1014.8
20260905182927 29 5 6.4 16.1 0.00 0.00 0.00 80 1014.8
20260905182431 28 5 11.3 12.9 0.00 0.00 0.00 77 1014.9
20260905181935 29 5 4.8 9.7 0.00 0.00 0.00 77 1014.8
20260905181439 29 5 6.4 14.5 0.00 0.00 0.00 77 1014.9
20260905180923 29 5 8.0 14.5 0.00 0.00 0.00 78 1014.9
20260905180426 29 360 6.4 12.9 0.00 0.00 0.00 79 1014.8
20260905175934 29 5 6.4 12.9 0.00 0.00 0.00 78 1014.8
20260905175420 29 5 3.2 9.7 0.00 0.00 0.00 79 1014.9
20260905174924 29 5 3.2 9.7 0.00 0.00 0.00 79 1015.0
20260905174448 29 5 4.8 8.0 0.00 0.00 0.00 79 1014.9
20260905173951 29 5 3.2 8.0 0.00 0.00 0.00 79 1014.9
20260905173433 29 5 3.2 9.7 0.00 0.00 0.00 80 1015.0
20260905172920 29 5 4.8 9.7 0.00 0.00 0.00 80 1015.1
20260905172428 29 5 4.8 16.1 0.00 0.00 0.00 79 1015.0
20260905171930 28 5 6.4 16.1 0.00 0.00 0.00 82 1015.0
20260905171434 28 5 6.4 12.9 0.00 0.00 0.00 82 1015.0
20260905170922 28 5 8.0 12.9 0.00 0.00 0.00 81 1015.1
20260905170425 28 5 4.8 14.5 0.00 0.00 0.00 81 1015.1
20260905165928 28 5 6.4 14.5 0.00 0.00 0.00 82 1015.0
20260905165432 28 5 6.4 11.3 0.00 0.00 0.00 82 1015.1
20260905164936 28 5 6.4 12.9 0.00 0.00 0.00 85 1015.0
20260905164439 28 5 8.0 11.3 0.00 0.00 0.00 84 1015.1
20260905163924 28 5 8.0 11.3 0.00 0.00 0.00 83 1015.1
20260905163428 28 5 4.8 11.3 0.00 0.00 0.00 83 1015.1
20260905162932 27 5 4.8 12.9 0.00 0.00 0.00 84 1015.1
20260905162435 27 5 6.4 12.9 0.00 0.00 0.00 84 1015.0
20260905161940 27 5 8.0 12.9 0.00 0.00 0.00 84 1015.1
20260905161424 27 360 6.4 12.9 0.00 0.00 0.00 84 1015.1
20260905160946 27 5 6.4 14.5 0.00 0.00 0.00 84 1015.2
20260905160429 27 5 4.8 14.5 0.00 0.00 0.00 85 1015.2
20260905155918 27 360 8.0 12.9 0.00 0.00 0.00 85 1015.2
20260905155423 27 5 8.0 14.5 0.00 0.00 0.00 85 1015.2
20260905154947 27 5 11.3 14.5 0.00 0.00 0.00 85 1015.3
20260905154429 27 5 8.0 12.9 0.00 0.00 0.00 85 1015.1
20260905153956 27 5 8.0 12.9 0.00 0.00 0.00 85 1015.0
20260905153438 27 5 6.4 12.9 0.00 0.00 0.00 86 1015.0
20260905152924 -17 5 8.0 14.5 0.00 0.00 0.00 1015.0
20260905152429 -17 5 9.7 17.7 0.00 0.00 0.00 1015.0
20260905151937 -17 5 9.7 17.7 0.00 0.00 0.00 1015.0
20260905151423 -17 5 9.7 17.7 0.00 0.00 0.00 1014.9
20260905150926 -17 5 8.0 16.1 0.00 0.00 0.00 1014.8
20260905150430 -17 360 8.0 16.1 0.00 0.00 0.00 1014.7
20260905145935 -17 5 11.3 17.7 0.00 0.00 0.00 1014.7
20260905145418 -17 5 11.3 17.7 0.00 0.00 0.00 1014.6
20260905144926 -17 5 11.3 14.5 0.00 0.00 0.00 1014.5
20260905144453 -17 5 8.0 19.3 0.00 0.00 0.00 1014.5
20260905144000 -17 5 12.9 19.3 0.00 0.00 0.00 1014.4
20260905143501 -17 5 9.7 20.9 0.00 0.00 0.00 1014.3